owner,sensor,date,latitude,longitude,vertical_datum,sea_water_practical_salinity,qcFlag 
TABS,ioos:station:wmo:42044:1,2017-05-01T00:00:00Z,26.1914,-97.0507,2.0,35.03,11111222 
TABS,ioos:station:wmo:42044:1,2017-05-01T00:30:00Z,26.1914,-97.0507,2.0,35.02,11111222 
TABS,ioos:station:wmo:42044:1,2017-05-01T01:00:00Z,26.1914,-97.0507,2.0,35.01,11111222 
TABS,ioos:station:wmo:42044:1,2017-05-01T01:30:00Z,26.1914,-97.0507,2.0,35.0,11111222 
TABS,ioos:station:wmo:42044:1,2017-05-01T02:00:00Z,26.1914,-97.0507,2.0,35.01,11111222 
TABS,ioos:station:wmo:42044:1,2017-05-01T02:30:00Z,26.1914,-97.0507,2.0,35.01,11111222 
TABS,ioos:station:wmo:42044:1,2017-05-01T03:00:00Z,26.1914,-97.0507,2.0,35.0,11111222 
TABS,ioos:station:wmo:42044:1,2017-05-01T03:30:00Z,26.1914,-97.0507,2.0,34.99,11111222 
TABS,ioos:station:wmo:42044:1,2017-05-01T04:00:00Z,26.1914,-97.0507,2.0,34.99,11111222 
TABS,ioos:station:wmo:42044:1,2017-05-01T04:30:00Z,26.1914,-97.0507,2.0,34.99,11111222 
TABS,ioos:station:wmo:42044:1,2017-05-01T05:00:00Z,26.1914,-97.0507,2.0,34.99,11111222 
TABS,ioos:station:wmo:42044:1,2017-05-01T05:30:00Z,26.1914,-97.0507,2.0,34.99,11111222 
TABS,ioos:station:wmo:42044:1,2017-05-01T06:00:00Z,26.1914,-97.0507,2.0,35.0,11111222 
TABS,ioos:station:wmo:42044:1,2017-05-01T06:30:00Z,26.1914,-97.0507,2.0,34.99,11111222 
TABS,ioos:station:wmo:42044:1,2017-05-01T07:00:00Z,26.1914,-97.0507,2.0,34.98,11111222 
TABS,ioos:station:wmo:42044:1,2017-05-01T07:30:00Z,26.1914,-97.0507,2.0,34.76,11111222 
TABS,ioos:station:wmo:42044:1,2017-05-01T08:00:00Z,26.1914,-97.0507,2.0,34.75,11111222 
TABS,ioos:station:wmo:42044:1,2017-05-01T08:30:00Z,26.1914,-97.0507,2.0,34.71,11111222 
TABS,ioos:station:wmo:42044:1,2017-05-01T09:00:00Z,26.1914,-97.0507,2.0,34.67,11111222 
TABS,ioos:station:wmo:42044:1,2017-05-01T09:30:00Z,26.1914,-97.0507,2.0,34.63,11111222 
TABS,ioos:station:wmo:42044:1,2017-05-01T10:00:00Z,26.1914,-97.0507,2.0,34.64,11111222 
TABS,ioos:station:wmo:42044:1,2017-05-01T10:30:00Z,26.1914,-97.0507,2.0,34.63,11111222 
TABS,ioos:station:wmo:42044:1,2017-05-01T11:00:00Z,26.1914,-97.0507,2.0,34.63,11111222 
TABS,ioos:station:wmo:42044:1,2017-05-01T11:30:00Z,26.1914,-97.0507,2.0,34.64,11111222 
TABS,ioos:station:wmo:42044:1,2017-05-01T12:00:00Z,26.1914,-97.0507,2.0,34.66,11111222 
TABS,ioos:station:wmo:42044:1,2017-05-01T12:30:00Z,26.1914,-97.0507,2.0,34.66,11111222 
TABS,ioos:station:wmo:42044:1,2017-05-01T13:00:00Z,26.1914,-97.0507,2.0,34.65,11111222 
TABS,ioos:station:wmo:42044:1,2017-05-01T13:30:00Z,26.1914,-97.0507,2.0,34.64,11111222 
TABS,ioos:station:wmo:42044:1,2017-05-01T14:00:00Z,26.1914,-97.0507,2.0,34.63,11111222 
TABS,ioos:station:wmo:42044:1,2017-05-01T14:30:00Z,26.1914,-97.0507,2.0,34.62,11111222 
TABS,ioos:station:wmo:42044:1,2017-05-01T15:00:00Z,26.1914,-97.0507,2.0,34.61,11111222 
TABS,ioos:station:wmo:42044:1,2017-05-01T15:30:00Z,26.1914,-97.0507,2.0,34.6,11111222 
TABS,ioos:station:wmo:42044:1,2017-05-01T16:00:00Z,26.1914,-97.0507,2.0,34.59,11111222 
TABS,ioos:station:wmo:42044:1,2017-05-01T16:30:00Z,26.1914,-97.0507,2.0,34.58,11111222 
TABS,ioos:station:wmo:42044:1,2017-05-01T17:00:00Z,26.1914,-97.0507,2.0,34.56,11111222 
TABS,ioos:station:wmo:42044:1,2017-05-01T17:30:00Z,26.1914,-97.0507,2.0,34.57,11111222 
TABS,ioos:station:wmo:42044:1,2017-05-01T18:00:00Z,26.1914,-97.0507,2.0,34.57,11111222 
TABS,ioos:station:wmo:42044:1,2017-05-01T18:30:00Z,26.1914,-97.0507,2.0,34.6,11111222 
TABS,ioos:station:wmo:42044:1,2017-05-01T19:00:00Z,26.1914,-97.0507,2.0,34.53,11111222 
TABS,ioos:station:wmo:42044:1,2017-05-01T19:30:00Z,26.1914,-97.0507,2.0,34.54,11111222 
TABS,ioos:station:wmo:42044:1,2017-05-01T20:00:00Z,26.1914,-97.0507,2.0,34.54,11111222 
TABS,ioos:station:wmo:42044:1,2017-05-01T20:30:00Z,26.1914,-97.0507,2.0,34.56,11111222 
TABS,ioos:station:wmo:42044:1,2017-05-01T21:00:00Z,26.1914,-97.0507,2.0,34.55,11111222 
TABS,ioos:station:wmo:42044:1,2017-05-01T21:30:00Z,26.1914,-97.0507,2.0,34.55,11111222 
TABS,ioos:station:wmo:42044:1,2017-05-01T22:00:00Z,26.1914,-97.0507,2.0,34.56,11111222 
TABS,ioos:station:wmo:42044:1,2017-05-01T22:30:00Z,26.1914,-97.0507,2.0,34.56,11111222 
TABS,ioos:station:wmo:42044:1,2017-05-01T23:00:00Z,26.1914,-97.0507,2.0,34.56,11111222 
TABS,ioos:station:wmo:42044:1,2017-05-01T23:30:00Z,26.1914,-97.0507,2.0,34.57,11111222 
TABS,ioos:station:wmo:42044:1,2017-05-02T00:00:00Z,26.1914,-97.0507,2.0,34.58,11111222 
TABS,ioos:station:wmo:42044:1,2017-05-02T00:30:00Z,26.1914,-97.0507,2.0,34.58,11111222 
TABS,ioos:station:wmo:42044:1,2017-05-02T01:00:00Z,26.1914,-97.0507,2.0,34.59,11111222 
TABS,ioos:station:wmo:42044:1,2017-05-02T01:30:00Z,26.1914,-97.0507,2.0,34.62,11111222 
TABS,ioos:station:wmo:42044:1,2017-05-02T02:00:00Z,26.1914,-97.0507,2.0,34.64,11111222 
TABS,ioos:station:wmo:42044:1,2017-05-02T02:30:00Z,26.1914,-97.0507,2.0,34.66,11111222 
TABS,ioos:station:wmo:42044:1,2017-05-02T03:00:00Z,26.1914,-97.0507,2.0,34.68,11111222 
TABS,ioos:station:wmo:42044:1,2017-05-02T03:30:00Z,26.1914,-97.0507,2.0,34.68,11111222 
TABS,ioos:station:wmo:42044:1,2017-05-02T04:00:00Z,26.1914,-97.0507,2.0,34.69,11111222 
TABS,ioos:station:wmo:42044:1,2017-05-02T04:30:00Z,26.1914,-97.0507,2.0,34.71,11111222 
TABS,ioos:station:wmo:42044:1,2017-05-02T05:00:00Z,26.1914,-97.0507,2.0,34.72,11111222 
TABS,ioos:station:wmo:42044:1,2017-05-02T05:30:00Z,26.1914,-97.0507,2.0,34.7,11111222 
TABS,ioos:station:wmo:42044:1,2017-05-02T06:00:00Z,26.1914,-97.0507,2.0,34.73,11111222 
TABS,ioos:station:wmo:42044:1,2017-05-02T06:30:00Z,26.1914,-97.0507,2.0,34.71,11111222 
TABS,ioos:station:wmo:42044:1,2017-05-02T07:00:00Z,26.1914,-97.0507,2.0,34.72,11111222 
TABS,ioos:station:wmo:42044:1,2017-05-02T07:30:00Z,26.1914,-97.0507,2.0,34.74,11111222 
TABS,ioos:station:wmo:42044:1,2017-05-02T08:00:00Z,26.1914,-97.0507,2.0,34.73,11111222 
TABS,ioos:station:wmo:42044:1,2017-05-02T08:30:00Z,26.1914,-97.0507,2.0,34.72,11111222 
TABS,ioos:station:wmo:42044:1,2017-05-02T09:00:00Z,26.1914,-97.0507,2.0,34.74,11111222 
TABS,ioos:station:wmo:42044:1,2017-05-02T09:30:00Z,26.1914,-97.0507,2.0,34.72,11111222 
TABS,ioos:station:wmo:42044:1,2017-05-02T10:00:00Z,26.1914,-97.0507,2.0,34.73,11111222 
TABS,ioos:station:wmo:42044:1,2017-05-02T10:30:00Z,26.1914,-97.0507,2.0,34.74,11111222 
TABS,ioos:station:wmo:42044:1,2017-05-02T11:00:00Z,26.1914,-97.0507,2.0,34.72,11111222 
TABS,ioos:station:wmo:42044:1,2017-05-02T11:30:00Z,26.1914,-97.0507,2.0,34.72,11111222 
TABS,ioos:station:wmo:42044:1,2017-05-02T12:00:00Z,26.1914,-97.0507,2.0,34.71,11111222 
TABS,ioos:station:wmo:42044:1,2017-05-02T12:30:00Z,26.1914,-97.0507,2.0,34.71,11111222 
TABS,ioos:station:wmo:42044:1,2017-05-02T13:00:00Z,26.1914,-97.0507,2.0,34.67,11111222 
TABS,ioos:station:wmo:42044:1,2017-05-02T13:30:00Z,26.1914,-97.0507,2.0,34.66,11111222 
TABS,ioos:station:wmo:42044:1,2017-05-02T14:00:00Z,26.1914,-97.0507,2.0,34.66,11111222 
TABS,ioos:station:wmo:42044:1,2017-05-02T14:30:00Z,26.1914,-97.0507,2.0,34.67,11111222 
TABS,ioos:station:wmo:42044:1,2017-05-02T15:00:00Z,26.1914,-97.0507,2.0,34.68,11111222 
TABS,ioos:station:wmo:42044:1,2017-05-02T15:30:00Z,26.1914,-97.0507,2.0,34.68,11111222 
TABS,ioos:station:wmo:42044:1,2017-05-02T16:00:00Z,26.1914,-97.0507,2.0,34.68,11111222 
TABS,ioos:station:wmo:42044:1,2017-05-02T16:30:00Z,26.1914,-97.0507,2.0,34.69,11111222 
TABS,ioos:station:wmo:42044:1,2017-05-02T17:00:00Z,26.1914,-97.0507,2.0,34.68,11111222 
TABS,ioos:station:wmo:42044:1,2017-05-02T17:30:00Z,26.1914,-97.0507,2.0,34.69,11111222 
TABS,ioos:station:wmo:42044:1,2017-05-02T18:00:00Z,26.1914,-97.0507,2.0,34.69,11111222 
TABS,ioos:station:wmo:42044:1,2017-05-02T18:30:00Z,26.1914,-97.0507,2.0,34.69,11111222 
TABS,ioos:station:wmo:42044:1,2017-05-02T19:00:00Z,26.1914,-97.0507,2.0,34.69,11111222 
TABS,ioos:station:wmo:42044:1,2017-05-02T19:30:00Z,26.1914,-97.0507,2.0,34.71,11111222 
TABS,ioos:station:wmo:42044:1,2017-05-02T20:00:00Z,26.1914,-97.0507,2.0,34.72,11111222 
TABS,ioos:station:wmo:42044:1,2017-05-02T20:30:00Z,26.1914,-97.0507,2.0,34.72,11111222 
TABS,ioos:station:wmo:42044:1,2017-05-02T21:00:00Z,26.1914,-97.0507,2.0,34.72,11111222 
TABS,ioos:station:wmo:42044:1,2017-05-02T21:30:00Z,26.1914,-97.0507,2.0,34.72,11111222 
TABS,ioos:station:wmo:42044:1,2017-05-02T22:00:00Z,26.1914,-97.0507,2.0,34.73,11111222 
TABS,ioos:station:wmo:42044:1,2017-05-02T22:30:00Z,26.1914,-97.0507,2.0,34.72,11111222 
TABS,ioos:station:wmo:42044:1,2017-05-02T23:00:00Z,26.1914,-97.0507,2.0,34.73,11111222 
TABS,ioos:station:wmo:42044:1,2017-05-02T23:30:00Z,26.1914,-97.0507,2.0,34.73,11111222 
TABS,ioos:station:wmo:42044:1,2017-05-03T00:00:00Z,26.1914,-97.0507,2.0,34.73,11111222 
TABS,ioos:station:wmo:42044:1,2017-05-03T00:30:00Z,26.1914,-97.0507,2.0,34.75,11111222 
TABS,ioos:station:wmo:42044:1,2017-05-03T01:00:00Z,26.1914,-97.0507,2.0,34.75,11111222 
TABS,ioos:station:wmo:42044:1,2017-05-03T01:30:00Z,26.1914,-97.0507,2.0,34.76,11111222 
TABS,ioos:station:wmo:42044:1,2017-05-03T02:00:00Z,26.1914,-97.0507,2.0,34.78,11111222 
TABS,ioos:station:wmo:42044:1,2017-05-03T02:30:00Z,26.1914,-97.0507,2.0,34.79,11111222 
TABS,ioos:station:wmo:42044:1,2017-05-03T03:00:00Z,26.1914,-97.0507,2.0,34.8,11111222 
TABS,ioos:station:wmo:42044:1,2017-05-03T03:30:00Z,26.1914,-97.0507,2.0,34.8,11111222 
TABS,ioos:station:wmo:42044:1,2017-05-03T04:00:00Z,26.1914,-97.0507,2.0,34.76,11111222 
TABS,ioos:station:wmo:42044:1,2017-05-03T04:30:00Z,26.1914,-97.0507,2.0,34.64,11111222 
TABS,ioos:station:wmo:42044:1,2017-05-03T05:00:00Z,26.1914,-97.0507,2.0,34.64,11111222 
TABS,ioos:station:wmo:42044:1,2017-05-03T05:30:00Z,26.1914,-97.0507,2.0,34.71,11111222 
TABS,ioos:station:wmo:42044:1,2017-05-03T06:00:00Z,26.1914,-97.0507,2.0,34.73,11111222 
TABS,ioos:station:wmo:42044:1,2017-05-03T06:30:00Z,26.1914,-97.0507,2.0,34.76,11111222 
TABS,ioos:station:wmo:42044:1,2017-05-03T07:00:00Z,26.1914,-97.0507,2.0,34.77,11111222 
TABS,ioos:station:wmo:42044:1,2017-05-03T07:30:00Z,26.1914,-97.0507,2.0,34.8,11111222 
TABS,ioos:station:wmo:42044:1,2017-05-03T08:00:00Z,26.1914,-97.0507,2.0,34.78,11111222 
TABS,ioos:station:wmo:42044:1,2017-05-03T08:30:00Z,26.1914,-97.0507,2.0,34.77,11111222 
TABS,ioos:station:wmo:42044:1,2017-05-03T09:00:00Z,26.1914,-97.0507,2.0,34.75,11111222 
TABS,ioos:station:wmo:42044:1,2017-05-03T09:30:00Z,26.1914,-97.0507,2.0,34.76,11111222 
TABS,ioos:station:wmo:42044:1,2017-05-03T10:00:00Z,26.1914,-97.0507,2.0,34.81,11111222 
TABS,ioos:station:wmo:42044:1,2017-05-03T10:30:00Z,26.1914,-97.0507,2.0,34.83,11111222 
TABS,ioos:station:wmo:42044:1,2017-05-03T11:00:00Z,26.1914,-97.0507,2.0,34.64,11111222 
TABS,ioos:station:wmo:42044:1,2017-05-03T11:30:00Z,26.1914,-97.0507,2.0,34.58,11111222 
TABS,ioos:station:wmo:42044:1,2017-05-03T12:00:00Z,26.1914,-97.0507,2.0,34.5,11111222 
TABS,ioos:station:wmo:42044:1,2017-05-03T12:30:00Z,26.1914,-97.0507,2.0,34.44,11111222 
TABS,ioos:station:wmo:42044:1,2017-05-03T13:00:00Z,26.1914,-97.0507,2.0,34.43,11111222 
TABS,ioos:station:wmo:42044:1,2017-05-03T13:30:00Z,26.1914,-97.0507,2.0,34.39,11111222 
TABS,ioos:station:wmo:42044:1,2017-05-03T14:00:00Z,26.1914,-97.0507,2.0,34.38,11111222 
TABS,ioos:station:wmo:42044:1,2017-05-03T14:30:00Z,26.1914,-97.0507,2.0,34.36,11111222 
TABS,ioos:station:wmo:42044:1,2017-05-03T15:00:00Z,26.1914,-97.0507,2.0,34.35,11111222 
TABS,ioos:station:wmo:42044:1,2017-05-03T15:30:00Z,26.1914,-97.0507,2.0,34.33,11111222 
TABS,ioos:station:wmo:42044:1,2017-05-03T16:00:00Z,26.1914,-97.0507,2.0,34.29,11111222 
TABS,ioos:station:wmo:42044:1,2017-05-03T16:30:00Z,26.1914,-97.0507,2.0,34.29,11111222 
TABS,ioos:station:wmo:42044:1,2017-05-03T17:00:00Z,26.1914,-97.0507,2.0,34.3,11111222 
TABS,ioos:station:wmo:42044:1,2017-05-03T17:30:00Z,26.1914,-97.0507,2.0,34.28,11111222 
TABS,ioos:station:wmo:42044:1,2017-05-03T18:00:00Z,26.1914,-97.0507,2.0,34.27,11111222 
TABS,ioos:station:wmo:42044:1,2017-05-03T18:30:00Z,26.1914,-97.0507,2.0,34.25,11111222 
TABS,ioos:station:wmo:42044:1,2017-05-03T19:00:00Z,26.1914,-97.0507,2.0,34.24,11111222 
TABS,ioos:station:wmo:42044:1,2017-05-03T19:30:00Z,26.1914,-97.0507,2.0,34.24,11111222 
TABS,ioos:station:wmo:42044:1,2017-05-03T20:00:00Z,26.1914,-97.0507,2.0,34.25,11111222 
TABS,ioos:station:wmo:42044:1,2017-05-03T20:30:00Z,26.1914,-97.0507,2.0,34.25,11111222 
TABS,ioos:station:wmo:42044:1,2017-05-03T21:00:00Z,26.1914,-97.0507,2.0,34.24,11111222 
TABS,ioos:station:wmo:42044:1,2017-05-03T21:30:00Z,26.1914,-97.0507,2.0,34.24,11111222 
TABS,ioos:station:wmo:42044:1,2017-05-03T22:00:00Z,26.1914,-97.0507,2.0,34.25,11111222 
TABS,ioos:station:wmo:42044:1,2017-05-03T22:30:00Z,26.1914,-97.0507,2.0,34.24,11111222 
TABS,ioos:station:wmo:42044:1,2017-05-03T23:00:00Z,26.1914,-97.0507,2.0,34.25,11111222 
TABS,ioos:station:wmo:42044:1,2017-05-03T23:30:00Z,26.1914,-97.0507,2.0,34.26,11111222 
TABS,ioos:station:wmo:42044:1,2017-05-04T00:00:00Z,26.1914,-97.0507,2.0,34.26,11111222 
TABS,ioos:station:wmo:42044:1,2017-05-04T00:30:00Z,26.1914,-97.0507,2.0,34.24,11111222 
TABS,ioos:station:wmo:42044:1,2017-05-04T01:00:00Z,26.1914,-97.0507,2.0,34.23,11111222 
TABS,ioos:station:wmo:42044:1,2017-05-04T01:30:00Z,26.1914,-97.0507,2.0,34.23,11111222 
TABS,ioos:station:wmo:42044:1,2017-05-04T02:00:00Z,26.1914,-97.0507,2.0,34.24,11111222 
TABS,ioos:station:wmo:42044:1,2017-05-04T02:30:00Z,26.1914,-97.0507,2.0,34.24,11111222 
TABS,ioos:station:wmo:42044:1,2017-05-04T03:00:00Z,26.1914,-97.0507,2.0,34.22,11111222 
TABS,ioos:station:wmo:42044:1,2017-05-04T03:30:00Z,26.1914,-97.0507,2.0,34.21,11111222 
TABS,ioos:station:wmo:42044:1,2017-05-04T04:00:00Z,26.1914,-97.0507,2.0,34.21,11111222 
TABS,ioos:station:wmo:42044:1,2017-05-04T04:30:00Z,26.1914,-97.0507,2.0,34.21,11111222 
TABS,ioos:station:wmo:42044:1,2017-05-04T05:00:00Z,26.1914,-97.0507,2.0,34.21,11111222 
TABS,ioos:station:wmo:42044:1,2017-05-04T05:30:00Z,26.1914,-97.0507,2.0,34.2,11111222 
TABS,ioos:station:wmo:42044:1,2017-05-04T06:00:00Z,26.1914,-97.0507,2.0,34.2,11111222 
TABS,ioos:station:wmo:42044:1,2017-05-04T06:30:00Z,26.1914,-97.0507,2.0,34.2,11111222 
TABS,ioos:station:wmo:42044:1,2017-05-04T07:00:00Z,26.1914,-97.0507,2.0,34.2,11111222 
TABS,ioos:station:wmo:42044:1,2017-05-04T07:30:00Z,26.1914,-97.0507,2.0,34.18,11111222 
TABS,ioos:station:wmo:42044:1,2017-05-04T08:00:00Z,26.1914,-97.0507,2.0,34.17,11111222 
TABS,ioos:station:wmo:42044:1,2017-05-04T08:30:00Z,26.1914,-97.0507,2.0,34.17,11111222 
TABS,ioos:station:wmo:42044:1,2017-05-04T09:00:00Z,26.1914,-97.0507,2.0,34.2,11111222 
TABS,ioos:station:wmo:42044:1,2017-05-04T09:30:00Z,26.1914,-97.0507,2.0,34.18,11111222 
TABS,ioos:station:wmo:42044:1,2017-05-04T10:00:00Z,26.1914,-97.0507,2.0,34.17,11111222 
TABS,ioos:station:wmo:42044:1,2017-05-04T10:30:00Z,26.1914,-97.0507,2.0,34.17,11111222 
TABS,ioos:station:wmo:42044:1,2017-05-04T11:00:00Z,26.1914,-97.0507,2.0,34.18,11111222 
TABS,ioos:station:wmo:42044:1,2017-05-04T11:30:00Z,26.1914,-97.0507,2.0,34.17,11111222 
TABS,ioos:station:wmo:42044:1,2017-05-04T12:00:00Z,26.1914,-97.0507,2.0,34.13,11111222 
TABS,ioos:station:wmo:42044:1,2017-05-04T12:30:00Z,26.1914,-97.0507,2.0,34.1,11111222 
TABS,ioos:station:wmo:42044:1,2017-05-04T13:00:00Z,26.1914,-97.0507,2.0,34.09,11111222 
TABS,ioos:station:wmo:42044:1,2017-05-04T13:30:00Z,26.1914,-97.0507,2.0,34.07,11111222 
TABS,ioos:station:wmo:42044:1,2017-05-04T14:00:00Z,26.1914,-97.0507,2.0,34.04,11111222 
TABS,ioos:station:wmo:42044:1,2017-05-04T14:30:00Z,26.1914,-97.0507,2.0,34.03,11111222 
TABS,ioos:station:wmo:42044:1,2017-05-04T15:00:00Z,26.1914,-97.0507,2.0,34.02,11111222 
TABS,ioos:station:wmo:42044:1,2017-05-04T15:30:00Z,26.1914,-97.0507,2.0,34.0,11111222 
TABS,ioos:station:wmo:42044:1,2017-05-04T16:00:00Z,26.1914,-97.0507,2.0,33.99,11111222 
TABS,ioos:station:wmo:42044:1,2017-05-04T16:30:00Z,26.1914,-97.0507,2.0,33.97,11111222 
TABS,ioos:station:wmo:42044:1,2017-05-04T17:00:00Z,26.1914,-97.0507,2.0,33.98,11111222 
TABS,ioos:station:wmo:42044:1,2017-05-04T17:30:00Z,26.1914,-97.0507,2.0,33.97,11111222 
TABS,ioos:station:wmo:42044:1,2017-05-04T18:00:00Z,26.1914,-97.0507,2.0,33.98,11111222 
TABS,ioos:station:wmo:42044:1,2017-05-04T18:30:00Z,26.1914,-97.0507,2.0,33.99,11111222 
TABS,ioos:station:wmo:42044:1,2017-05-04T19:00:00Z,26.1914,-97.0507,2.0,33.98,11111222 
TABS,ioos:station:wmo:42044:1,2017-05-04T19:30:00Z,26.1914,-97.0507,2.0,33.97,11111222 
TABS,ioos:station:wmo:42044:1,2017-05-04T20:00:00Z,26.1914,-97.0507,2.0,33.94,11111222 
TABS,ioos:station:wmo:42044:1,2017-05-04T20:30:00Z,26.1914,-97.0507,2.0,33.92,11111222 
TABS,ioos:station:wmo:42044:1,2017-05-04T21:00:00Z,26.1914,-97.0507,2.0,33.87,11111222 
TABS,ioos:station:wmo:42044:1,2017-05-04T21:30:00Z,26.1914,-97.0507,2.0,33.85,11111222 
TABS,ioos:station:wmo:42044:1,2017-05-04T22:00:00Z,26.1914,-97.0507,2.0,33.8,11111222 
TABS,ioos:station:wmo:42044:1,2017-05-04T22:30:00Z,26.1914,-97.0507,2.0,33.78,11111222 
TABS,ioos:station:wmo:42044:1,2017-05-04T23:00:00Z,26.1914,-97.0507,2.0,33.76,11111222 
TABS,ioos:station:wmo:42044:1,2017-05-04T23:30:00Z,26.1914,-97.0507,2.0,33.74,11111222 
TABS,ioos:station:wmo:42044:1,2017-05-05T00:00:00Z,26.1914,-97.0507,2.0,33.72,11111222 
TABS,ioos:station:wmo:42044:1,2017-05-05T00:30:00Z,26.1914,-97.0507,2.0,33.71,11111222 
TABS,ioos:station:wmo:42044:1,2017-05-05T01:00:00Z,26.1914,-97.0507,2.0,33.69,11111222 
TABS,ioos:station:wmo:42044:1,2017-05-05T01:30:00Z,26.1914,-97.0507,2.0,33.69,11111222 
TABS,ioos:station:wmo:42044:1,2017-05-05T02:00:00Z,26.1914,-97.0507,2.0,33.68,11111222 
TABS,ioos:station:wmo:42044:1,2017-05-05T02:30:00Z,26.1914,-97.0507,2.0,33.66,11111222 
TABS,ioos:station:wmo:42044:1,2017-05-05T03:00:00Z,26.1914,-97.0507,2.0,33.66,11111222 
TABS,ioos:station:wmo:42044:1,2017-05-05T03:30:00Z,26.1914,-97.0507,2.0,33.65,11111222 
TABS,ioos:station:wmo:42044:1,2017-05-05T04:00:00Z,26.1914,-97.0507,2.0,33.65,11111222 
TABS,ioos:station:wmo:42044:1,2017-05-05T04:30:00Z,26.1914,-97.0507,2.0,33.64,11111222 
TABS,ioos:station:wmo:42044:1,2017-05-05T05:00:00Z,26.1914,-97.0507,2.0,33.64,11111222 
TABS,ioos:station:wmo:42044:1,2017-05-05T05:30:00Z,26.1914,-97.0507,2.0,33.64,11111222 
TABS,ioos:station:wmo:42044:1,2017-05-05T06:00:00Z,26.1914,-97.0507,2.0,33.65,11111222 
TABS,ioos:station:wmo:42044:1,2017-05-05T06:30:00Z,26.1914,-97.0507,2.0,33.65,11111222 
TABS,ioos:station:wmo:42044:1,2017-05-05T07:00:00Z,26.1914,-97.0507,2.0,33.65,11111222 
TABS,ioos:station:wmo:42044:1,2017-05-05T07:30:00Z,26.1914,-97.0507,2.0,33.66,11111222 
TABS,ioos:station:wmo:42044:1,2017-05-05T08:00:00Z,26.1914,-97.0507,2.0,33.66,11111222 
TABS,ioos:station:wmo:42044:1,2017-05-05T08:30:00Z,26.1914,-97.0507,2.0,33.66,11111222 
TABS,ioos:station:wmo:42044:1,2017-05-05T09:00:00Z,26.1914,-97.0507,2.0,33.66,11111222 
TABS,ioos:station:wmo:42044:1,2017-05-05T09:30:00Z,26.1914,-97.0507,2.0,33.66,11111222 
TABS,ioos:station:wmo:42044:1,2017-05-05T10:00:00Z,26.1914,-97.0507,2.0,33.67,11111222 
TABS,ioos:station:wmo:42044:1,2017-05-05T10:30:00Z,26.1914,-97.0507,2.0,33.67,11111222 
TABS,ioos:station:wmo:42044:1,2017-05-05T11:00:00Z,26.1914,-97.0507,2.0,33.67,11111222 
TABS,ioos:station:wmo:42044:1,2017-05-05T11:30:00Z,26.1914,-97.0507,2.0,33.67,11111222 
TABS,ioos:station:wmo:42044:1,2017-05-05T12:00:00Z,26.1914,-97.0507,2.0,33.67,11111222 
TABS,ioos:station:wmo:42044:1,2017-05-05T12:30:00Z,26.1914,-97.0507,2.0,33.67,11111222 
TABS,ioos:station:wmo:42044:1,2017-05-05T13:00:00Z,26.1914,-97.0507,2.0,33.68,11111222 
TABS,ioos:station:wmo:42044:1,2017-05-05T13:30:00Z,26.1914,-97.0507,2.0,33.68,11111222 
TABS,ioos:station:wmo:42044:1,2017-05-05T14:00:00Z,26.1914,-97.0507,2.0,33.69,11111222 
TABS,ioos:station:wmo:42044:1,2017-05-05T14:30:00Z,26.1914,-97.0507,2.0,33.69,11111222 
TABS,ioos:station:wmo:42044:1,2017-05-05T15:00:00Z,26.1914,-97.0507,2.0,33.69,11111222 
TABS,ioos:station:wmo:42044:1,2017-05-05T15:30:00Z,26.1914,-97.0507,2.0,33.7,11111222 
TABS,ioos:station:wmo:42044:1,2017-05-05T16:00:00Z,26.1914,-97.0507,2.0,33.7,11111222 
TABS,ioos:station:wmo:42044:1,2017-05-05T16:30:00Z,26.1914,-97.0507,2.0,33.71,11111222 
TABS,ioos:station:wmo:42044:1,2017-05-05T17:00:00Z,26.1914,-97.0507,2.0,33.71,11111222 
TABS,ioos:station:wmo:42044:1,2017-05-05T17:30:00Z,26.1914,-97.0507,2.0,33.7,11111222 
TABS,ioos:station:wmo:42044:1,2017-05-05T18:00:00Z,26.1914,-97.0507,2.0,33.71,11111222 
TABS,ioos:station:wmo:42044:1,2017-05-05T18:30:00Z,26.1914,-97.0507,2.0,33.71,11111222 
TABS,ioos:station:wmo:42044:1,2017-05-05T19:00:00Z,26.1914,-97.0507,2.0,33.72,11111222 
TABS,ioos:station:wmo:42044:1,2017-05-05T19:30:00Z,26.1914,-97.0507,2.0,33.72,11111222 
TABS,ioos:station:wmo:42044:1,2017-05-05T20:00:00Z,26.1914,-97.0507,2.0,33.72,11111222 
TABS,ioos:station:wmo:42044:1,2017-05-05T20:30:00Z,26.1914,-97.0507,2.0,33.72,11111222 
TABS,ioos:station:wmo:42044:1,2017-05-05T21:00:00Z,26.1914,-97.0507,2.0,33.7,11111222 
TABS,ioos:station:wmo:42044:1,2017-05-05T21:30:00Z,26.1914,-97.0507,2.0,33.65,11111222 
TABS,ioos:station:wmo:42044:1,2017-05-05T22:00:00Z,26.1914,-97.0507,2.0,33.64,11111222 
TABS,ioos:station:wmo:42044:1,2017-05-05T22:30:00Z,26.1914,-97.0507,2.0,33.61,11111222 
TABS,ioos:station:wmo:42044:1,2017-05-05T23:00:00Z,26.1914,-97.0507,2.0,33.61,11111222 
TABS,ioos:station:wmo:42044:1,2017-05-05T23:30:00Z,26.1914,-97.0507,2.0,33.59,11111222 
TABS,ioos:station:wmo:42044:1,2017-05-06T00:00:00Z,26.1914,-97.0507,2.0,33.58,11111222 
TABS,ioos:station:wmo:42044:1,2017-05-06T00:30:00Z,26.1914,-97.0507,2.0,33.57,11111222 
TABS,ioos:station:wmo:42044:1,2017-05-06T01:00:00Z,26.1914,-97.0507,2.0,33.56,11111222 
TABS,ioos:station:wmo:42044:1,2017-05-06T01:30:00Z,26.1914,-97.0507,2.0,33.54,11111222 
TABS,ioos:station:wmo:42044:1,2017-05-06T02:00:00Z,26.1914,-97.0507,2.0,33.53,11111222 
TABS,ioos:station:wmo:42044:1,2017-05-06T02:30:00Z,26.1914,-97.0507,2.0,33.52,11111222 
TABS,ioos:station:wmo:42044:1,2017-05-06T03:00:00Z,26.1914,-97.0507,2.0,33.51,11111222 
TABS,ioos:station:wmo:42044:1,2017-05-06T03:30:00Z,26.1914,-97.0507,2.0,33.5,11111222 
TABS,ioos:station:wmo:42044:1,2017-05-06T04:00:00Z,26.1914,-97.0507,2.0,33.49,11111222 
TABS,ioos:station:wmo:42044:1,2017-05-06T04:30:00Z,26.1914,-97.0507,2.0,33.49,11111222 
TABS,ioos:station:wmo:42044:1,2017-05-06T05:00:00Z,26.1914,-97.0507,2.0,33.49,11111222 
TABS,ioos:station:wmo:42044:1,2017-05-06T05:30:00Z,26.1914,-97.0507,2.0,33.49,11111222 
TABS,ioos:station:wmo:42044:1,2017-05-06T06:00:00Z,26.1914,-97.0507,2.0,33.49,11111222 
TABS,ioos:station:wmo:42044:1,2017-05-06T06:30:00Z,26.1914,-97.0507,2.0,33.49,11111222 
TABS,ioos:station:wmo:42044:1,2017-05-06T07:00:00Z,26.1914,-97.0507,2.0,33.49,11111222 
TABS,ioos:station:wmo:42044:1,2017-05-06T07:30:00Z,26.1914,-97.0507,2.0,33.49,11111222 
TABS,ioos:station:wmo:42044:1,2017-05-06T08:00:00Z,26.1914,-97.0507,2.0,33.5,11111222 
TABS,ioos:station:wmo:42044:1,2017-05-06T08:30:00Z,26.1914,-97.0507,2.0,33.5,11111222 
TABS,ioos:station:wmo:42044:1,2017-05-06T09:00:00Z,26.1914,-97.0507,2.0,33.5,11111222 
TABS,ioos:station:wmo:42044:1,2017-05-06T09:30:00Z,26.1914,-97.0507,2.0,33.51,11111222 
TABS,ioos:station:wmo:42044:1,2017-05-06T10:00:00Z,26.1914,-97.0507,2.0,33.51,11111222 
TABS,ioos:station:wmo:42044:1,2017-05-06T10:30:00Z,26.1914,-97.0507,2.0,33.53,11111222 
TABS,ioos:station:wmo:42044:1,2017-05-06T11:00:00Z,26.1914,-97.0507,2.0,33.53,11111222 
TABS,ioos:station:wmo:42044:1,2017-05-06T11:30:00Z,26.1914,-97.0507,2.0,33.54,11111222 
TABS,ioos:station:wmo:42044:1,2017-05-06T12:00:00Z,26.1914,-97.0507,2.0,33.55,11111222 
TABS,ioos:station:wmo:42044:1,2017-05-06T12:30:00Z,26.1914,-97.0507,2.0,33.56,11111222 
TABS,ioos:station:wmo:42044:1,2017-05-06T13:00:00Z,26.1914,-97.0507,2.0,33.58,11111222 
TABS,ioos:station:wmo:42044:1,2017-05-06T13:30:00Z,26.1914,-97.0507,2.0,33.59,11111222 
TABS,ioos:station:wmo:42044:1,2017-05-06T14:00:00Z,26.1914,-97.0507,2.0,33.6,11111222 
TABS,ioos:station:wmo:42044:1,2017-05-06T14:30:00Z,26.1914,-97.0507,2.0,33.62,11111222 
TABS,ioos:station:wmo:42044:1,2017-05-06T15:00:00Z,26.1914,-97.0507,2.0,33.64,11111222 
TABS,ioos:station:wmo:42044:1,2017-05-06T15:30:00Z,26.1914,-97.0507,2.0,33.64,11111222 